Regional Weather Roundup
Issued by NWS

Home | Current Version | Previous Version | Graphics & Text | Print | Product List | Glossary On
Versions: 1 2 3 4 5 6 7 8 9 10 11 12 13 14 15 16 17 18 19 20 21 22 23 24 25 26 27 28 29 30 31 32 33 34 35 36 37 38 39 40 41 42 43 44 45 46 47 48 49 50
000
ASUS43 KLSX 240207
RWRMO

WEATHER SUMMARY FOR MISSOURI
NATIONAL WEATHER SERVICE SPRINGFIELD MO
800 PM CST FRI FEB 23 2018

NOTE: "FAIR" INDICATES FEW OR NO CLOUDS BELOW 12,000 FEET WITH NO
       SIGNIFICANT WEATHER AND/OR OBSTRUCTIONS TO VISIBILITY.
       CURRENT SKY AND/OR WEATHER CONDITIONS ARE NOT AVAILABLE FOR
       CHILLICOTHE AND FARMINGTON.

MOZ001>031-035>038-043-044-053-054-240300-
...NORTHERN AND WESTERN MISSOURI...

CITY           SKY/WX    TMP DP  RH WIND       PRES   REMARKS
KANSAS CTY INT CLOUDY    33  30  88 E6        30.22F WCI  28
KANSAS C DTWN  CLOUDY    36  29  75 NE7       30.22F
LEE`S SUMMIT   CLOUDY    34  31  88 E8        30.21F WCI  27
ST JOSEPH      CLOUDY    34  31  88 NE7       30.24F WCI  28
CHILLICOTHE      N/A     36  31  82 CALM      30.26F
KIRKSVILLE     CLOUDY    33  32  96 CALM      30.27R

$$
MOZ066>068-077>081-088>096-101>105-240300-
...SOUTHWEST MISSOURI...

CITY           SKY/WX    TMP DP  RH WIND       PRES   REMARKS
SPRINGFIELD    RAIN      46  45  96 N5        30.14R FOG
JOPLIN         RAIN      41  41 100 E10       30.12F FOG
BRANSON        CLOUDY    46  46 100 SE9       30.15F

$$
MOZ032>034-039>042-045>050-055>058-069>072-240300-
...CENTRAL MISSOURI...

CITY           SKY/WX    TMP DP  RH WIND       PRES   REMARKS
COLUMBIA       CLOUDY    36  35  96 NE9       30.23F FOG     WCI  29
JEFFERSON CITY CLOUDY    38  37  97 N5        30.25F
ROLLA          LGT RAIN  40  40 100 NE8       30.23R FOG
SEDALIA        CLOUDY    37  36  96 NE8       30.23F
WHITEMAN AFB   CLOUDY    36  33  90 NE8       30.17F WCI  29
WARRENSBURG    CLOUDY    34  32  93 N7        30.21F WCI  28
OSAGE BEACH    LGT RAIN  38  38 100 NE9       30.21F FOG

$$
MOZ051-052-059>065-240300-
...EAST CENTRAL MISSOURI...

CITY           SKY/WX    TMP DP  RH WIND       PRES   REMARKS
ST LOUIS INTL  CLOUDY    42  40  92 N8        30.24R
SPIRIT OF STL  CLOUDY    42  40  92 N7        30.27R
ST CHARLES       N/A     41  38  89 N7        30.26F

$$
MOZ072>076-082>087-097>100-106>115-240300-
...SOUTH CENTRAL AND SOUTHEAST MISSOURI...

CITY           SKY/WX    TMP DP  RH WIND       PRES   REMARKS
CAPE GIRARDEAU CLOUDY    52  49  89 N6        30.22F
FARMINGTON     LGT RAIN  47  46  97 E6        30.19F
POPLAR BLUFF   CLOUDY    51  49  92 NE3       30.22F
WEST PLAINS    RAIN      47  46  97 E6        30.15F FOG

$$



USA.gov is the U.S. government's official web portal to all federal, state and local government web resources and services.